Terug naar catalogus

COSMOS 2251 DEB

ActiefVLEO
NORAD 47116·DEBRIS·🇷🇺 Russia

Gelanceerd Jun 16, 1993 vanaf Plesetsk Cosmodrome

Loading…

Volgende Passages (komende 24 uur)

TLE

VersSource: Space-Track

Epoch: Sep 13, 2026, 19:54 UTC

1 47116U 93036BYJ 26256.82975979  .00029209  00000-0  16793-2 0  9997
2 47116  74.0210  36.0755 0017123  68.3185  82.0344 15.12236757636517

Volg COSMOS 2251 DEB in realtime met AllMySat

Download on the App Store